Wetterdaten: aktuell Freitag, 23.02.2018 17:49
Datum Zeit Temp. A. Feuchte A. Luftdruck Regen Wind Richtung Richtung Taupunkt Windben
23.02.2018 17:49 -2,3 C 53 % 1018,2 hPa 0,0 l/m 7,9 km/h NO 45 -10,6 C 10,0 km/h
23.02.2018 17:46 -2,2 C 53 % 1018,2 hPa 0,0 l/m 8,4 km/h N-NO 22 -10,5 C 10,3 km/h
23.02.2018 17:44 -2,2 C 53 % 1018,2 hPa 0,0 l/m 8,4 km/h N-NO 22 -10,5 C 10,3 km/h
23.02.2018 17:42 -2,1 C 53 % 1018,2 hPa 0,0 l/m 8,2 km/h N-NO 22 -10,4 C 8,4 km/h
23.02.2018 17:34 -1,9 C 52 % 1018,1 hPa 0,0 l/m 8,9 km/h O-NO 67 -10,4 C 8,5 km/h
23.02.2018 17:29 -1,8 C 52 % 1018,1 hPa 0,0 l/m 8,7 km/h NO 45 -10,3 C 13,4 km/h
23.02.2018 17:24 -1,6 C 51 % 1018,1 hPa 0,0 l/m 9,5 km/h N-NO 22 -10,4 C 10,5 km/h
23.02.2018 17:19 -1,5 C 51 % 1018,1 hPa 0,0 l/m 10,6 km/h O-NO 67 -10,3 C 4,8 km/h
23.02.2018 17:14 -1,4 C 50 % 1018,1 hPa 0,0 l/m 10,6 km/h N 360 -10,4 C 11,7 km/h
23.02.2018 17:09 -1,2 C 50 % 1018,1 hPa 0,0 l/m 10,5 km/h N-NO 22 -10,3 C 16,4 km/h
23.02.2018 17:04 -1,1 C 50 % 1018,1 hPa 0,0 l/m 10,6 km/h O-NO 67 -10,2 C 12,9 km/h
23.02.2018 16:59 -0,9 C 49 % 1018,2 hPa 0,0 l/m 10,5 km/h O-NO 67 -10,2 C 10,6 km/h
23.02.2018 16:54 -0,7 C 49 % 1018,2 hPa 0,0 l/m 8,5 km/h N-NO 22 -10,1 C 16,6 km/h
23.02.2018 16:49 -0,6 C 49 % 1018,2 hPa 0,0 l/m 6,9 km/h N-NO 22 -10,0 C 10,1 km/h
23.02.2018 16:44 -0,5 C 49 % 1018,2 hPa 0,0 l/m 7,4 km/h O-NO 67 -9,9 C 6,6 km/h
23.02.2018 16:39 -0,4 C 49 % 1018,1 hPa 0,0 l/m 8,4 km/h O-NO 67 -9,8 C 9,2 km/h
23.02.2018 16:34 -0,4 C 49 % 1018,1 hPa 0,0 l/m 7,4 km/h O-NO 67 -9,8 C 5,6 km/h
23.02.2018 16:29 -0,3 C 49 % 1018,1 hPa 0,0 l/m 6,8 km/h NO 45 -9,7 C 10,0 km/h
23.02.2018 16:24 -0,2 C 49 % 1018,1 hPa 0,0 l/m 8,0 km/h O-NO 67 -9,6 C 7,4 km/h
23.02.2018 16:19 -0,2 C 48 % 1018,0 hPa 0,0 l/m 7,2 km/h N-NO 22 -9,9 C 6,3 km/h
23.02.2018 16:14 -0,1 C 49 % 1018,0 hPa 0,0 l/m 7,9 km/h O 90 -9,5 C 9,7 km/h
23.02.2018 16:09 -0,1 C 48 % 1018,0 hPa 0,0 l/m 10,0 km/h O-NO 67 -9,8 C 5,0 km/h
23.02.2018 16:04 0,0 C 48 % 1018,0 hPa 0,0 l/m 11,6 km/h NO 45 -9,7 C 10,6 km/h
23.02.2018 15:59 -0,1 C 48 % 1018,0 hPa 0,0 l/m 11,4 km/h N-NO 22 -9,8 C 14,6 km/h
23.02.2018 15:54 0,0 C 48 % 1018,0 hPa 0,0 l/m 11,3 km/h NO 45 -9,7 C 12,6 km/h
23.02.2018 15:49 0,0 C 47 % 1018,0 hPa 0,0 l/m 12,9 km/h O 90 -9,9 C 10,0 km/h
23.02.2018 15:44 0,1 C 48 % 1018,0 hPa 0,0 l/m 12,6 km/h O-NO 67 -9,6 C 16,3 km/h
23.02.2018 15:39 0,1 C 48 % 1017,6 hPa 0,0 l/m 11,9 km/h N-NO 22 -9,6 C 10,8 km/h
23.02.2018 15:34 0,1 C 47 % 1017,6 hPa 0,0 l/m 12,7 km/h O 90 -9,8 C 16,1 km/h
23.02.2018 15:29 0,2 C 48 % 1017,6 hPa 0,0 l/m 12,7 km/h O 90 -9,5 C 22,0 km/h
23.02.2018 15:24 0,2 C 48 % 1017,6 hPa 0,0 l/m 13,4 km/h NO 45 -9,5 C 16,6 km/h
23.02.2018 15:19 0,1 C 47 % 1017,8 hPa 0,0 l/m 15,0 km/h N-NO 22 -9,8 C 12,7 km/h
23.02.2018 15:14 0,1 C 47 % 1017,8 hPa 0,0 l/m 16,3 km/h O-NO 67 -9,8 C 15,1 km/h
23.02.2018 15:09 0,2 C 47 % 1017,8 hPa 0,0 l/m 15,1 km/h O-NO 67 -9,8 C 20,1 km/h
23.02.2018 15:04 0,3 C 48 % 1017,8 hPa 0,0 l/m 14,6 km/h N-NO 22 -9,4 C 21,2 km/h
23.02.2018 14:59 0,3 C 48 % 1017,8 hPa 0,0 l/m 15,8 km/h O 90 -9,4 C 15,6 km/h
23.02.2018 14:54 0,2 C 47 % 1017,8 hPa 0,0 l/m 16,4 km/h NO 45 -9,8 C 24,0 km/h
23.02.2018 14:49 0,3 C 48 % 1017,8 hPa 0,0 l/m 15,1 km/h N 360 -9,4 C 23,2 km/h
23.02.2018 14:44 0,3 C 49 % 1017,8 hPa 0,0 l/m 14,5 km/h N-NO 22 -9,1 C 13,5 km/h
23.02.2018 14:39 0,4 C 49 % 1017,8 hPa 0,0 l/m 14,6 km/h N-NO 22 -9,0 C 10,0 km/h
23.02.2018 14:34 0,4 C 48 % 1017,8 hPa 0,0 l/m 14,2 km/h O-NO 67 -9,3 C 12,9 km/h
23.02.2018 14:29 0,4 C 48 % 1017,8 hPa 0,0 l/m 13,2 km/h O-NO 67 -9,3 C 18,7 km/h
23.02.2018 14:24 0,3 C 49 % 1017,8 hPa 0,0 l/m 13,0 km/h NO 45 -9,1 C 13,8 km/h
23.02.2018 14:19 0,3 C 49 % 1018,0 hPa 0,0 l/m 14,6 km/h N 360 -9,1 C 15,8 km/h
23.02.2018 14:14 0,3 C 49 % 1018,0 hPa 0,0 l/m 15,1 km/h O-NO 67 -9,1 C 10,3 km/h
23.02.2018 14:09 0,3 C 50 % 1018,0 hPa 0,0 l/m 15,4 km/h N-NO 22 -8,9 C 17,2 km/h
23.02.2018 14:04 0,2 C 50 % 1018,0 hPa 0,0 l/m 15,6 km/h O-NO 67 -9,0 C 20,0 km/h
23.02.2018 13:59 0,2 C 51 % 1018,1 hPa 0,0 l/m 16,1 km/h N-NO 22 -8,7 C 14,5 km/h
23.02.2018 13:54 0,1 C 50 % 1018,1 hPa 0,0 l/m 15,8 km/h NO 45 -9,1 C 17,5 km/h
23.02.2018 13:49 0,1 C 49 % 1018,1 hPa 0,0 l/m 16,3 km/h O-NO 67 -9,3 C 16,1 km/h
23.02.2018 13:44 0,2 C 49 % 1018,1 hPa 0,0 l/m 14,5 km/h NO 45 -9,2 C 17,4 km/h
23.02.2018 13:39 0,3 C 49 % 1018,2 hPa 0,0 l/m 13,8 km/h N-NO 22 -9,1 C 15,4 km/h
23.02.2018 13:34 0,3 C 50 % 1018,2 hPa 0,0 l/m 13,8 km/h NO 45 -8,9 C 12,9 km/h
23.02.2018 13:29 0,3 C 50 % 1018,2 hPa 0,0 l/m 11,9 km/h NO 45 -8,9 C 18,0 km/h
23.02.2018 13:24 0,5 C 49 % 1018,2 hPa 0,0 l/m 10,3 km/h N-NO 22 -9,0 C 16,3 km/h
23.02.2018 13:19 0,4 C 48 % 1018,3 hPa 0,0 l/m 10,8 km/h N-NO 22 -9,3 C 15,6 km/h
23.02.2018 13:14 0,2 C 46 % 1018,3 hPa 0,0 l/m 11,4 km/h O-NO 67 -10,0 C 12,9 km/h
23.02.2018 13:09 0,0 C 46 % 1018,3 hPa 0,0 l/m 12,2 km/h N-NO 22 -10,2 C 9,5 km/h
23.02.2018 13:04 0,0 C 47 % 1018,3 hPa 0,0 l/m 12,2 km/h O-NO 67 -9,9 C 18,3 km/h
23.02.2018 12:59 -0,2 C 48 % 1018,5 hPa 0,0 l/m 11,1 km/h N 360 -9,9 C 15,6 km/h
23.02.2018 12:54 -0,1 C 48 % 1018,5 hPa 0,0 l/m 9,2 km/h O-NO 67 -9,8 C 13,5 km/h
23.02.2018 12:49 -0,2 C 49 % 1018,5 hPa 0,0 l/m 8,0 km/h O-NO 67 -9,6 C 11,9 km/h
23.02.2018 12:44 -0,3 C 49 % 1018,5 hPa 0,0 l/m 8,4 km/h O-NO 67 -9,7 C 14,0 km/h
23.02.2018 12:39 -0,4 C 49 % 1018,8 hPa 0,0 l/m 8,0 km/h S-SO 157 -9,8 C 7,6 km/h
23.02.2018 12:34 -0,6 C 49 % 1018,8 hPa 0,0 l/m 8,0 km/h O 90 -10,0 C 9,8 km/h
23.02.2018 12:29 -0,7 C 48 % 1018,8 hPa 0,0 l/m 8,5 km/h O 90 -10,3 C 17,1 km/h
23.02.2018 12:24 -0,6 C 51 % 1018,8 hPa 0,0 l/m 6,6 km/h O-NO 67 -9,5 C 8,4 km/h
23.02.2018 12:19 -0,8 C 50 % 1018,8 hPa 0,0 l/m 5,5 km/h O-SO 112 -9,9 C 8,7 km/h
23.02.2018 12:14 -0,9 C 52 % 1018,8 hPa 0,0 l/m 7,1 km/h O-NO 67 -9,5 C 12,2 km/h
23.02.2018 12:09 -1,0 C 52 % 1018,8 hPa 0,0 l/m 6,6 km/h N 360 -9,6 C 6,6 km/h
23.02.2018 12:04 -1,2 C 53 % 1018,8 hPa 0,0 l/m 4,8 km/h S 180 -9,5 C 6,4 km/h
23.02.2018 11:59 -1,2 C 53 % 1018,9 hPa 0,0 l/m 5,8 km/h O 90 -9,5 C 2,3 km/h
23.02.2018 11:54 -1,5 C 51 % 1018,9 hPa 0,0 l/m 8,2 km/h O-SO 112 -10,3 C 11,1 km/h
23.02.2018 11:49 -1,6 C 50 % 1018,9 hPa 0,0 l/m 9,2 km/h O-SO 112 -10,6 C 16,7 km/h
23.02.2018 11:44 -1,6 C 52 % 1018,9 hPa 0,0 l/m 8,4 km/h NO 45 -10,1 C 8,9 km/h
23.02.2018 11:39 -1,7 C 52 % 1019,1 hPa 0,0 l/m 9,2 km/h NW 315 -10,2 C 11,1 km/h
23.02.2018 11:34 -1,7 C 54 % 1019,1 hPa 0,0 l/m 7,9 km/h S 180 -9,8 C 4,5 km/h
23.02.2018 11:29 -1,9 C 54 % 1019,1 hPa 0,0 l/m 7,6 km/h O-SO 112 -9,9 C 21,2 km/h
23.02.2018 11:24 -2,0 C 55 % 1019,1 hPa 0,0 l/m 7,7 km/h O-SO 112 -9,8 C 8,7 km/h
23.02.2018 11:19 -2,1 C 55 % 1019,1 hPa 0,0 l/m 6,9 km/h O 90 -9,9 C 9,7 km/h
23.02.2018 11:14 -2,3 C 58 % 1019,1 hPa 0,0 l/m 4,8 km/h SW 225 -9,4 C 5,3 km/h
23.02.2018 11:09 -2,5 C 59 % 1019,1 hPa 0,0 l/m 6,3 km/h S-SO 157 -9,4 C 7,7 km/h
23.02.2018 11:04 -2,8 C 59 % 1019,1 hPa 0,0 l/m 8,7 km/h N-NO 22 -9,7 C 9,3 km/h
23.02.2018 10:59 -3,0 C 58 % 1019,0 hPa 0,0 l/m 9,8 km/h N-NO 22 -10,1 C 10,6 km/h
23.02.2018 10:54 -3,1 C 59 % 1019,0 hPa 0,0 l/m 10,5 km/h O-NO 67 -10,0 C 10,8 km/h
23.02.2018 10:49 -3,3 C 58 % 1019,0 hPa 0,0 l/m 9,7 km/h N 360 -10,4 C 12,1 km/h
23.02.2018 10:44 -3,4 C 59 % 1019,0 hPa 0,0 l/m 9,7 km/h NO 45 -10,2 C 13,2 km/h
23.02.2018 10:39 -3,5 C 59 % 1018,9 hPa 0,0 l/m 9,7 km/h NO 45 -10,3 C 16,9 km/h
23.02.2018 10:34 -3,7 C 59 % 1018,9 hPa 0,0 l/m 10,1 km/h N-NO 22 -10,5 C 1,8 km/h
23.02.2018 10:29 -3,8 C 59 % 1018,9 hPa 0,0 l/m 10,3 km/h N 360 -10,6 C 14,3 km/h
23.02.2018 10:24 -3,9 C 61 % 1018,9 hPa 0,0 l/m 10,1 km/h NO 45 -10,3 C 15,1 km/h
23.02.2018 10:19 -4,1 C 61 % 1018,6 hPa 0,0 l/m 10,9 km/h O-NO 67 -10,5 C 12,4 km/h
23.02.2018 10:14 -4,2 C 63 % 1018,6 hPa 0,0 l/m 10,3 km/h N-NO 22 -10,2 C 11,3 km/h
23.02.2018 10:09 -4,4 C 63 % 1018,6 hPa 0,0 l/m 9,5 km/h N-NO 22 -10,4 C 13,4 km/h
23.02.2018 10:04 -4,6 C 64 % 1018,6 hPa 0,0 l/m 9,5 km/h N-NO 22 -10,3 C 19,2 km/h
23.02.2018 09:59 -4,8 C 65 % 1018,7 hPa 0,0 l/m 8,7 km/h N-NO 22 -10,3 C 13,4 km/h
23.02.2018 09:54 -5,0 C 66 % 1018,7 hPa 0,0 l/m 7,9 km/h NO 45 -10,3 C 7,7 km/h
23.02.2018 09:49 -5,3 C 67 % 1018,7 hPa 0,0 l/m 9,3 km/h O-NO 67 -10,4 C 9,5 km/h
23.02.2018 09:44 -5,5 C 67 % 1018,7 hPa 0,0 l/m 8,7 km/h W-SW 247 -10,6 C 9,5 km/h
23.02.2018 09:39 -5,6 C 68 % 1018,4 hPa 0,0 l/m 7,9 km/h N-NO 22 -10,5 C 12,2 km/h
_ Min-Zeit 06:10 13:09 05:45 - 01:35 - - 06:10 22:55
Minimum _ -8,1 C 46 % 1017,5 hPa - 2,4 km/h - - -12,8 C 0,0 km/h
_ Max-Zeit 13:24 06:35 22:45 18:04 14:54 - - 13:59 14:54
Maximum _ 0,5 C 72 % 1019,2 hPa 0,0 l/m 16,4 km/h
NO
- - -8,7 C 24,0 km/h
NO
Durchschnitt _ -3,8 C 58 % 1018,4 hPa #0,0 l/m 7,3 km/h O-NO - -11,0 C 8,5 km/h